Aeroporto :
LOGIN :

Iscrizione | Disclaimer

   EN    FR    IT 

 










Sommario :    VFR   VFR Marginale   IFR   IFR Intensivo   IFR Molto Intensivo
Visibilità : 
Base nubi : 
>= 8 km
>= 3000ft
5 / 8 km
1000 / 3000 ft
1500m / 5 km
500 / 1000 ft
800 / 1500m
200 / 500 ft
< 800m
< 200 ft
Simboli :   Temporali  Nebbia  Neve Forte  Precipitazioni Forti  Vento > 20 kt
SIGMETs :   Varie  Temporali  Ghiacco  Turbolenza  Onda orograficha  Ceneri Vulcaniche







- Altitudine del aeroporto : 405 ft
- Codice IATA : SUJ


LRSM - Satu Mare

ULTIMO METAR :
  • 190200Z AUTO 10005KT 9999 NCD 17/17 Q1014

METARs OBSOLETI :
  • 190130Z AUTO 09005KT 9999 NCD 18/17 Q1015
  • 190100Z AUTO 10005KT 9999 NCD 18/17 Q1015
  • 190030Z AUTO 08006KT 9999 NCD 18/17 Q1015
  • 190000Z AUTO 09004KT 9999 NCD 18/17 Q1015
  • 182330Z AUTO 07003KT 9999 NCD 18/17 Q1015

TAF TAF LRSM
Valido dal 19 a 03 ore il 19 a 12 ore UTC


190200Z 1903/1912 VRB04KT CAVOK
BECMG 1908/1910 16010KT
PROB40
TEMPO 1910/1912 VRB15G25KT 3000 -TSRA BKN010 BKN030CB
Nessun NOTAM noto per questo aeroporto.



MetMap, La meteo Aeronautica in un colpo d'occhio ! - Copyright ORBIFLY Dicembre 2007 - Disclaimer

ORBIFLY MET'MAP TEAM :

Programmazione e sviluppo : Alexandra Zaïnal
Concezione e sviluppo : Baudouin d'Aumeries
Co-Programmazione e sviluppo : Marc-Olivier Méhu
Supporto tecnico e logistico : Manuel Goepfert
Aiuto per la traduzione : Arnaldo La Scala

Contatto : metmap@orbifly.com




FONTI E CREDITI :

   NOAA